TimeWET,TemperatureF,Dew PointF,Humidity,Sea Level PressureIn,VisibilityMPH,Wind Direction,Wind SpeedMPH,Gust SpeedMPH,PrecipitationIn,Events,Conditions,WindDirDegrees,DateUTC
12:00 AM,54,23,18,,12,Calm,Calm,,,,Partly Cloudy,,2013-03-03 00:00:00
12:00 AM,55.4,23.0,29,29.92,-9999.0,Calm,Calm,-,N/A,,Clear,0,2013-03-03 00:00:00
1:00 AM,51.8,21.2,30,29.95,-9999.0,WNW,2.3,-,N/A,,Clear,290,2013-03-03 01:00:00
2:00 AM,53.6,19.4,26,29.92,-9999.0,Calm,Calm,-,N/A,,Clear,0,2013-03-03 02:00:00
3:00 AM,51,19,16,,12,Calm,Calm,,,,Partly Cloudy,,2013-03-03 03:00:00
3:00 AM,50.0,19.4,30,29.92,-9999.0,Calm,Calm,-,N/A,,Clear,0,2013-03-03 03:00:00
4:00 AM,46.4,17.6,32,29.89,-9999.0,West,2.3,-,N/A,,Clear,270,2013-03-03 04:00:00
5:00 AM,44.6,15.8,31,29.89,-9999.0,West,2.3,-,N/A,,Clear,270,2013-03-03 05:00:00
6:00 AM,41,18,26,,12,Calm,Calm,,,,Scattered Clouds,,2013-03-03 06:00:00
6:00 AM,41.0,17.6,39,29.89,-9999.0,Calm,Calm,-,N/A,,Clear,0,2013-03-03 06:00:00
7:00 AM,44.6,17.6,34,29.92,-9999.0,Calm,Calm,-,N/A,,Clear,0,2013-03-03 07:00:00
8:00 AM,50.0,17.6,28,29.92,-9999.0,Calm,Calm,-,N/A,,Clear,0,2013-03-03 08:00:00
9:00 AM,51,18,15,,12,NNE,2.3,,,,Clear,30,2013-03-03 09:00:00
9:00 AM,50.0,17.6,28,29.92,-9999.0,Variable,2.3,-,N/A,,Clear,0,2013-03-03 09:00:00
10:00 AM,53.6,19.4,26,29.95,-9999.0,Variable,3.5,-,N/A,,Clear,0,2013-03-03 10:00:00
11:00 AM,57.2,21.2,25,29.92,-9999.0,Variable,1.2,-,N/A,,Clear,0,2013-03-03 11:00:00
12:00 PM,60,23,13,,12,SSE,1.2,,,,Clear,150,2013-03-03 12:00:00
12:00 PM,59.0,23.0,25,29.92,-9999.0,Variable,1.2,-,N/A,,Clear,0,2013-03-03 12:00:00
1:00 PM,62.6,41.0,45,29.86,-9999.0,Variable,2.3,-,N/A,,Clear,0,2013-03-03 13:00:00
2:00 PM,64.4,23.0,21,29.83,-9999.0,Variable,2.3,-,N/A,,Clear,0,2013-03-03 14:00:00
3:00 PM,64,21,10,,12,ENE,3.5,,,,Scattered Clouds,60,2013-03-03 15:00:00
3:00 PM,64.4,21.2,19,29.83,-9999.0,Variable,2.3,-,N/A,,Clear,0,2013-03-03 15:00:00
4:00 PM,66.2,17.6,15,29.80,6.2,NNE,4.6,-,N/A,,Scattered Clouds,20,2013-03-03 16:00:00
5:00 PM,66.2,17.6,15,29.77,6.2,SE,9.2,-,N/A,,Scattered Clouds,130,2013-03-03 17:00:00
6:00 PM,65,20,9,,12,SE,12.7,,,,Scattered Clouds,130,2013-03-03 18:00:00
6:00 PM,64.4,21.2,19,29.77,6.2,SE,12.7,-,N/A,,Mostly Cloudy,130,2013-03-03 18:00:00
7:00 PM,62.6,21.2,20,29.80,6.2,SE,10.4,-,N/A,,Scattered Clouds,140,2013-03-03 19:00:00
8:00 PM,62.6,23.0,22,29.80,6.2,SE,11.5,-,N/A,,Mostly Cloudy,140,2013-03-03 20:00:00
9:00 PM,61,27,17,,12,South,8.1,,,,Scattered Clouds,170,2013-03-03 21:00:00
9:00 PM,60.8,26.6,27,29.83,6.2,South,8.1,-,N/A,,Mostly Cloudy,170,2013-03-03 21:00:00
10:00 PM,60.8,26.6,27,29.83,6.2,Variable,2.3,-,N/A,,Mostly Cloudy,0,2013-03-03 22:00:00
11:00 PM,57.2,32.0,38,29.83,6.2,West,8.1,-,N/A,,Mostly Cloudy,260,2013-03-03 23:00:00